owner,sensor,date,latitude,longitude,vertical_datum,wind_speed,wind_to_direction,wind_speed_of_gust,qcFlag 
COMPS,ioos:station:USF.COMPS:C12:1,2008-08-11T00:59:00Z,27.4980,-83.7220,3.0,6.4,193.0,-9999.0,'1111122,1111122,1111122' 
COMPS,ioos:station:USF.COMPS:C12:1,2008-08-11T01:59:00Z,27.4980,-83.7220,3.0,6.4,190.0,-9999.0,'1111122,1111122,1111122' 
COMPS,ioos:station:USF.COMPS:C12:1,2008-08-11T02:59:00Z,27.4980,-83.7220,3.0,2.9,248.0,-9999.0,'1111122,1111122,1111122' 
COMPS,ioos:station:USF.COMPS:C12:1,2008-08-11T03:59:00Z,27.4980,-83.7220,3.0,6.0,334.0,-9999.0,'1111122,1111122,1111122' 
COMPS,ioos:station:USF.COMPS:C12:1,2008-08-11T04:59:00Z,27.4980,-83.7220,3.0,7.8,338.0,-9999.0,'1111122,1111122,1111122' 
COMPS,ioos:station:USF.COMPS:C12:1,2008-08-11T05:59:00Z,27.4980,-83.7220,3.0,8.2,339.0,-9999.0,'1111122,1111122,1111122' 
COMPS,ioos:station:USF.COMPS:C12:1,2008-08-11T06:59:00Z,27.4980,-83.7220,3.0,6.4,328.0,-9999.0,'1111122,1111122,1111122' 
COMPS,ioos:station:USF.COMPS:C12:1,2008-08-11T07:59:00Z,27.4980,-83.7220,3.0,6.2,326.0,-9999.0,'1111122,1111122,1111122' 
COMPS,ioos:station:USF.COMPS:C12:1,2008-08-11T08:59:00Z,27.4980,-83.7220,3.0,6.8,321.0,-9999.0,'1111122,1111122,1111122' 
COMPS,ioos:station:USF.COMPS:C12:1,2008-08-11T09:59:00Z,27.4980,-83.7220,3.0,6.0,317.0,-9999.0,'1111122,1111122,1111122' 
COMPS,ioos:station:USF.COMPS:C12:1,2008-08-11T10:59:00Z,27.4980,-83.7220,3.0,7.6,331.0,-9999.0,'1111122,1111122,1111122' 
COMPS,ioos:station:USF.COMPS:C12:1,2008-08-11T11:59:00Z,27.4980,-83.7220,3.0,7.0,339.0,-9999.0,'1111122,1111122,1111122' 
COMPS,ioos:station:USF.COMPS:C12:1,2008-08-11T12:59:00Z,27.4980,-83.7220,3.0,6.4,337.0,-9999.0,'1111122,1111122,1111122' 
COMPS,ioos:station:USF.COMPS:C12:1,2008-08-11T13:59:00Z,27.4980,-83.7220,3.0,4.9,334.0,-9999.0,'1111122,1111122,1111122' 
COMPS,ioos:station:USF.COMPS:C12:1,2008-08-11T14:59:00Z,27.4980,-83.7220,3.0,2.3,335.0,-9999.0,'1111122,1111122,1111122' 
COMPS,ioos:station:USF.COMPS:C12:1,2008-08-11T15:59:00Z,27.4980,-83.7220,3.0,3.9,256.0,-9999.0,'1111122,1111122,1111122' 
COMPS,ioos:station:USF.COMPS:C12:1,2008-08-11T16:59:00Z,27.4980,-83.7220,3.0,3.9,242.0,-9999.0,'1111122,1111122,1111122' 
COMPS,ioos:station:USF.COMPS:C12:1,2008-08-11T17:59:00Z,27.4980,-83.7220,3.0,4.9,340.0,-9999.0,'1111122,1111122,1111122' 
COMPS,ioos:station:USF.COMPS:C12:1,2008-08-11T18:59:00Z,27.4980,-83.7220,3.0,3.9,312.0,-9999.0,'1111122,1111122,1111122' 
COMPS,ioos:station:USF.COMPS:C12:1,2008-08-11T19:59:00Z,27.4980,-83.7220,3.0,7.6,350.0,-9999.0,'1111122,1111122,1111122' 
COMPS,ioos:station:USF.COMPS:C12:1,2008-08-11T20:59:00Z,27.4980,-83.7220,3.0,3.2,328.0,-9999.0,'1111122,1111122,1111122' 
COMPS,ioos:station:USF.COMPS:C12:1,2008-08-11T21:59:00Z,27.4980,-83.7220,3.0,4.5,350.0,-9999.0,'1111122,1111122,1111122' 
COMPS,ioos:station:USF.COMPS:C12:1,2008-08-11T22:59:00Z,27.4980,-83.7220,3.0,3.1,350.0,-9999.0,'1111122,1111122,1111122' 
COMPS,ioos:station:USF.COMPS:C12:1,2008-08-11T23:59:00Z,27.4980,-83.7220,3.0,3.9,354.0,-9999.0,'1111122,1111122,1111122' 
COMPS,ioos:station:USF.COMPS:C12:1,2008-08-12T00:59:00Z,27.4980,-83.7220,3.0,2.8,343.0,-9999.0,'1111122,1111122,1111122' 
COMPS,ioos:station:USF.COMPS:C12:1,2008-08-12T01:59:00Z,27.4980,-83.7220,3.0,5.1,329.0,-9999.0,'1111122,1111122,1111122' 
COMPS,ioos:station:USF.COMPS:C12:1,2008-08-12T02:59:00Z,27.4980,-83.7220,3.0,3.8,320.0,-9999.0,'1111122,1111122,1111122' 
COMPS,ioos:station:USF.COMPS:C12:1,2008-08-12T03:59:00Z,27.4980,-83.7220,3.0,3.2,317.0,-9999.0,'1111122,1111122,1111122' 
COMPS,ioos:station:USF.COMPS:C12:1,2008-08-12T04:59:00Z,27.4980,-83.7220,3.0,3.9,313.0,-9999.0,'1111122,1111122,1111122' 
COMPS,ioos:station:USF.COMPS:C12:1,2008-08-12T05:59:00Z,27.4980,-83.7220,3.0,2.9,309.0,-9999.0,'1111122,1111122,1111122' 
COMPS,ioos:station:USF.COMPS:C12:1,2008-08-12T06:59:00Z,27.4980,-83.7220,3.0,2.1,301.0,-9999.0,'1111122,1111122,1111122' 
COMPS,ioos:station:USF.COMPS:C12:1,2008-08-12T07:59:00Z,27.4980,-83.7220,3.0,2.1,264.0,-9999.0,'1111122,1111122,1111122' 
COMPS,ioos:station:USF.COMPS:C12:1,2008-08-12T08:59:00Z,27.4980,-83.7220,3.0,2.3,279.0,-9999.0,'1111122,1111122,1111122' 
COMPS,ioos:station:USF.COMPS:C12:1,2008-08-12T09:59:00Z,27.4980,-83.7220,3.0,2.7,287.0,-9999.0,'1111122,1111122,1111122' 
COMPS,ioos:station:USF.COMPS:C12:1,2008-08-12T10:59:00Z,27.4980,-83.7220,3.0,4.7,318.0,-9999.0,'1111122,1111122,1111122' 
COMPS,ioos:station:USF.COMPS:C12:1,2008-08-12T11:59:00Z,27.4980,-83.7220,3.0,5.0,306.0,-9999.0,'1111122,1111122,1111122' 
COMPS,ioos:station:USF.COMPS:C12:1,2008-08-12T12:59:00Z,27.4980,-83.7220,3.0,5.3,312.0,-9999.0,'1111122,1111122,1111122' 
COMPS,ioos:station:USF.COMPS:C12:1,2008-08-12T13:59:00Z,27.4980,-83.7220,3.0,4.3,305.0,-9999.0,'1111122,1111122,1111122' 
COMPS,ioos:station:USF.COMPS:C12:1,2008-08-12T14:59:00Z,27.4980,-83.7220,3.0,5.5,299.0,-9999.0,'1111122,1111122,1111122' 
COMPS,ioos:station:USF.COMPS:C12:1,2008-08-12T15:59:00Z,27.4980,-83.7220,3.0,4.0,297.0,-9999.0,'1111122,1111122,1111122' 
COMPS,ioos:station:USF.COMPS:C12:1,2008-08-12T16:59:00Z,27.4980,-83.7220,3.0,5.4,304.0,-9999.0,'1111122,1111122,1111122' 
COMPS,ioos:station:USF.COMPS:C12:1,2008-08-12T17:59:00Z,27.4980,-83.7220,3.0,6.0,304.0,-9999.0,'1111122,1111122,1111122' 
COMPS,ioos:station:USF.COMPS:C12:1,2008-08-12T18:59:00Z,27.4980,-83.7220,3.0,5.9,311.0,-9999.0,'1111122,1111122,1111122' 
COMPS,ioos:station:USF.COMPS:C12:1,2008-08-12T19:59:00Z,27.4980,-83.7220,3.0,5.6,315.0,-9999.0,'1111122,1111122,1111122' 
COMPS,ioos:station:USF.COMPS:C12:1,2008-08-12T20:59:00Z,27.4980,-83.7220,3.0,8.8,342.0,-9999.0,'1111122,1111122,1111122' 
COMPS,ioos:station:USF.COMPS:C12:1,2008-08-12T21:59:00Z,27.4980,-83.7220,3.0,6.9,340.0,-9999.0,'1111122,1111122,1111122' 
COMPS,ioos:station:USF.COMPS:C12:1,2008-08-12T22:59:00Z,27.4980,-83.7220,3.0,4.8,340.0,-9999.0,'1111122,1111122,1111122' 
COMPS,ioos:station:USF.COMPS:C12:1,2008-08-12T23:59:00Z,27.4980,-83.7220,3.0,1.2,6.0,-9999.0,'1111122,1111122,1111122' 
COMPS,ioos:station:USF.COMPS:C12:1,2008-08-13T00:59:00Z,27.4980,-83.7220,3.0,1.7,198.0,-9999.0,'1111122,1111122,1111122' 
COMPS,ioos:station:USF.COMPS:C12:1,2008-08-13T01:59:00Z,27.4980,-83.7220,3.0,3.0,187.0,-9999.0,'1111122,1111122,1111122' 
COMPS,ioos:station:USF.COMPS:C12:1,2008-08-13T02:59:00Z,27.4980,-83.7220,3.0,4.4,178.0,-9999.0,'1111122,1111122,1111122' 
COMPS,ioos:station:USF.COMPS:C12:1,2008-08-13T03:59:00Z,27.4980,-83.7220,3.0,5.4,170.0,-9999.0,'1111122,1111122,1111122' 
COMPS,ioos:station:USF.COMPS:C12:1,2008-08-13T04:59:00Z,27.4980,-83.7220,3.0,6.3,164.0,-9999.0,'1111122,1111122,1111122' 
COMPS,ioos:station:USF.COMPS:C12:1,2008-08-13T05:59:00Z,27.4980,-83.7220,3.0,7.2,161.0,-9999.0,'1111122,1111122,1111122' 
COMPS,ioos:station:USF.COMPS:C12:1,2008-08-13T06:59:00Z,27.4980,-83.7220,3.0,6.9,167.0,-9999.0,'1111122,1111122,1111122' 
COMPS,ioos:station:USF.COMPS:C12:1,2008-08-13T07:59:00Z,27.4980,-83.7220,3.0,7.5,162.0,-9999.0,'1111122,1111122,1111122' 
COMPS,ioos:station:USF.COMPS:C12:1,2008-08-13T08:59:00Z,27.4980,-83.7220,3.0,6.6,163.0,-9999.0,'1111122,1111122,1111122' 
COMPS,ioos:station:USF.COMPS:C12:1,2008-08-13T09:59:00Z,27.4980,-83.7220,3.0,5.3,162.0,-9999.0,'1111122,1111122,1111122' 
COMPS,ioos:station:USF.COMPS:C12:1,2008-08-13T10:59:00Z,27.4980,-83.7220,3.0,4.4,168.0,-9999.0,'1111122,1111122,1111122' 
COMPS,ioos:station:USF.COMPS:C12:1,2008-08-13T11:59:00Z,27.4980,-83.7220,3.0,1.5,207.0,-9999.0,'1111122,1111122,1111122' 
COMPS,ioos:station:USF.COMPS:C12:1,2008-08-13T12:59:00Z,27.4980,-83.7220,3.0,2.8,284.0,-9999.0,'1111122,1111122,1111122' 
COMPS,ioos:station:USF.COMPS:C12:1,2008-08-13T13:59:00Z,27.4980,-83.7220,3.0,3.7,279.0,-9999.0,'1111122,1111122,1111122' 
COMPS,ioos:station:USF.COMPS:C12:1,2008-08-13T14:59:00Z,27.4980,-83.7220,3.0,3.8,272.0,-9999.0,'1111122,1111122,1111122' 
COMPS,ioos:station:USF.COMPS:C12:1,2008-08-13T15:59:00Z,27.4980,-83.7220,3.0,5.0,286.0,-9999.0,'1111122,1111122,1111122' 
COMPS,ioos:station:USF.COMPS:C12:1,2008-08-13T16:59:00Z,27.4980,-83.7220,3.0,3.6,267.0,-9999.0,'1111122,1111122,1111122' 
COMPS,ioos:station:USF.COMPS:C12:1,2008-08-13T17:59:00Z,27.4980,-83.7220,3.0,2.5,225.0,-9999.0,'1111122,1111122,1111122' 
COMPS,ioos:station:USF.COMPS:C12:1,2008-08-13T18:59:00Z,27.4980,-83.7220,3.0,4.0,270.0,-9999.0,'1111122,1111122,1111122' 
COMPS,ioos:station:USF.COMPS:C12:1,2008-08-13T19:59:00Z,27.4980,-83.7220,3.0,4.0,276.0,-9999.0,'1111122,1111122,1111122' 
COMPS,ioos:station:USF.COMPS:C12:1,2008-08-13T20:59:00Z,27.4980,-83.7220,3.0,4.2,266.0,-9999.0,'1111122,1111122,1111122' 
COMPS,ioos:station:USF.COMPS:C12:1,2008-08-13T21:59:00Z,27.4980,-83.7220,3.0,4.1,271.0,-9999.0,'1111122,1111122,1111122' 
COMPS,ioos:station:USF.COMPS:C12:1,2008-08-13T22:59:00Z,27.4980,-83.7220,3.0,4.2,270.0,-9999.0,'1111122,1111122,1111122' 
COMPS,ioos:station:USF.COMPS:C12:1,2008-08-13T23:59:00Z,27.4980,-83.7220,3.0,3.4,274.0,-9999.0,'1111122,1111122,1111122' 
COMPS,ioos:station:USF.COMPS:C12:1,2008-08-14T00:59:00Z,27.4980,-83.7220,3.0,4.0,281.0,-9999.0,'1111122,1111122,1111122' 
COMPS,ioos:station:USF.COMPS:C12:1,2008-08-14T01:59:00Z,27.4980,-83.7220,3.0,3.1,311.0,-9999.0,'1111122,1111122,1111122' 
COMPS,ioos:station:USF.COMPS:C12:1,2008-08-14T02:59:00Z,27.4980,-83.7220,3.0,2.8,292.0,-9999.0,'1111122,1111122,1111122' 
COMPS,ioos:station:USF.COMPS:C12:1,2008-08-14T03:59:00Z,27.4980,-83.7220,3.0,2.3,310.0,-9999.0,'1111122,1111122,1111122' 
COMPS,ioos:station:USF.COMPS:C12:1,2008-08-14T04:59:00Z,27.4980,-83.7220,3.0,5.8,173.0,-9999.0,'1111122,1111122,1111122' 
COMPS,ioos:station:USF.COMPS:C12:1,2008-08-14T05:59:00Z,27.4980,-83.7220,3.0,6.4,177.0,-9999.0,'1111122,1111122,1111122' 
COMPS,ioos:station:USF.COMPS:C12:1,2008-08-14T06:59:00Z,27.4980,-83.7220,3.0,5.5,177.0,-9999.0,'1111122,1111122,1111122' 
COMPS,ioos:station:USF.COMPS:C12:1,2008-08-14T07:59:00Z,27.4980,-83.7220,3.0,5.6,186.0,-9999.0,'1111122,1111122,1111122' 
COMPS,ioos:station:USF.COMPS:C12:1,2008-08-14T08:59:00Z,27.4980,-83.7220,3.0,7.1,177.0,-9999.0,'1111122,1111122,1111122' 
COMPS,ioos:station:USF.COMPS:C12:1,2008-08-14T09:59:00Z,27.4980,-83.7220,3.0,7.7,177.0,-9999.0,'1111122,1111122,1111122' 
COMPS,ioos:station:USF.COMPS:C12:1,2008-08-14T10:59:00Z,27.4980,-83.7220,3.0,7.4,174.0,-9999.0,'1111122,1111122,1111122' 
COMPS,ioos:station:USF.COMPS:C12:1,2008-08-14T11:59:00Z,27.4980,-83.7220,3.0,6.7,175.0,-9999.0,'1111122,1111122,1111122' 
COMPS,ioos:station:USF.COMPS:C12:1,2008-08-14T12:59:00Z,27.4980,-83.7220,3.0,4.3,182.0,-9999.0,'1111122,1111122,1111122' 
COMPS,ioos:station:USF.COMPS:C12:1,2008-08-14T13:59:00Z,27.4980,-83.7220,3.0,3.4,184.0,-9999.0,'1111122,1111122,1111122' 
COMPS,ioos:station:USF.COMPS:C12:1,2008-08-14T14:59:00Z,27.4980,-83.7220,3.0,2.4,267.0,-9999.0,'1111122,1111122,1111122' 
COMPS,ioos:station:USF.COMPS:C12:1,2008-08-14T15:59:00Z,27.4980,-83.7220,3.0,2.2,250.0,-9999.0,'1111122,1111122,1111122' 
COMPS,ioos:station:USF.COMPS:C12:1,2008-08-14T16:59:00Z,27.4980,-83.7220,3.0,2.2,271.0,-9999.0,'1111122,1111122,1111122' 
COMPS,ioos:station:USF.COMPS:C12:1,2008-08-14T17:59:00Z,27.4980,-83.7220,3.0,2.6,250.0,-9999.0,'1111122,1111122,1111122' 
COMPS,ioos:station:USF.COMPS:C12:1,2008-08-14T18:59:00Z,27.4980,-83.7220,3.0,2.9,222.0,-9999.0,'1111122,1111122,1111122' 
COMPS,ioos:station:USF.COMPS:C12:1,2008-08-14T19:59:00Z,27.4980,-83.7220,3.0,6.7,319.0,-9999.0,'1111122,1111122,1111122' 
COMPS,ioos:station:USF.COMPS:C12:1,2008-08-14T20:59:00Z,27.4980,-83.7220,3.0,4.1,349.0,-9999.0,'1111122,1111122,1111122' 
COMPS,ioos:station:USF.COMPS:C12:1,2008-08-14T21:59:00Z,27.4980,-83.7220,3.0,4.3,308.0,-9999.0,'1111122,1111122,1111122' 
COMPS,ioos:station:USF.COMPS:C12:1,2008-08-14T22:59:00Z,27.4980,-83.7220,3.0,2.0,211.0,-9999.0,'1111122,1111122,1111122' 
COMPS,ioos:station:USF.COMPS:C12:1,2008-08-14T23:59:00Z,27.4980,-83.7220,3.0,3.1,284.0,-9999.0,'1111122,1111122,1111122' 
COMPS,ioos:station:USF.COMPS:C12:1,2008-08-15T00:59:00Z,27.4980,-83.7220,3.0,5.0,333.0,-9999.0,'1111122,1111122,1111122' 
COMPS,ioos:station:USF.COMPS:C12:1,2008-08-15T01:59:00Z,27.4980,-83.7220,3.0,2.8,307.0,-9999.0,'1111122,1111122,1111122' 
COMPS,ioos:station:USF.COMPS:C12:1,2008-08-15T02:59:00Z,27.4980,-83.7220,3.0,1.8,266.0,-9999.0,'1111122,1111122,1111122' 
COMPS,ioos:station:USF.COMPS:C12:1,2008-08-15T03:59:00Z,27.4980,-83.7220,3.0,3.3,181.0,-9999.0,'1111122,1111122,1111122' 
COMPS,ioos:station:USF.COMPS:C12:1,2008-08-15T04:59:00Z,27.4980,-83.7220,3.0,4.1,187.0,-9999.0,'1111122,1111122,1111122' 
COMPS,ioos:station:USF.COMPS:C12:1,2008-08-15T05:59:00Z,27.4980,-83.7220,3.0,4.9,179.0,-9999.0,'1111122,1111122,1111122' 
COMPS,ioos:station:USF.COMPS:C12:1,2008-08-15T06:59:00Z,27.4980,-83.7220,3.0,5.0,179.0,-9999.0,'1111122,1111122,1111122' 
COMPS,ioos:station:USF.COMPS:C12:1,2008-08-15T07:59:00Z,27.4980,-83.7220,3.0,5.9,186.0,-9999.0,'1111122,1111122,1111122' 
COMPS,ioos:station:USF.COMPS:C12:1,2008-08-15T08:59:00Z,27.4980,-83.7220,3.0,6.6,184.0,-9999.0,'1111122,1111122,1111122' 
COMPS,ioos:station:USF.COMPS:C12:1,2008-08-15T09:59:00Z,27.4980,-83.7220,3.0,6.6,183.0,-9999.0,'1111122,1111122,1111122' 
COMPS,ioos:station:USF.COMPS:C12:1,2008-08-15T10:59:00Z,27.4980,-83.7220,3.0,5.2,186.0,-9999.0,'1111122,1111122,1111122' 
COMPS,ioos:station:USF.COMPS:C12:1,2008-08-15T11:59:00Z,27.4980,-83.7220,3.0,4.8,178.0,-9999.0,'1111122,1111122,1111122' 
COMPS,ioos:station:USF.COMPS:C12:1,2008-08-15T12:59:00Z,27.4980,-83.7220,3.0,3.7,185.0,-9999.0,'1111122,1111122,1111122' 
COMPS,ioos:station:USF.COMPS:C12:1,2008-08-15T13:59:00Z,27.4980,-83.7220,3.0,3.1,185.0,-9999.0,'1111122,1111122,1111122' 
COMPS,ioos:station:USF.COMPS:C12:1,2008-08-15T14:59:00Z,27.4980,-83.7220,3.0,1.5,238.0,-9999.0,'1111122,1111122,1111122' 
COMPS,ioos:station:USF.COMPS:C12:1,2008-08-15T15:59:00Z,27.4980,-83.7220,3.0,2.3,328.0,-9999.0,'1111122,1111122,1111122' 
COMPS,ioos:station:USF.COMPS:C12:1,2008-08-15T16:59:00Z,27.4980,-83.7220,3.0,4.5,360.0,-9999.0,'1111122,1111122,1111122' 
COMPS,ioos:station:USF.COMPS:C12:1,2008-08-15T17:59:00Z,27.4980,-83.7220,3.0,4.1,357.0,-9999.0,'1111122,1111122,1111122' 
COMPS,ioos:station:USF.COMPS:C12:1,2008-08-15T18:59:00Z,27.4980,-83.7220,3.0,3.4,348.0,-9999.0,'1111122,1111122,1111122' 
COMPS,ioos:station:USF.COMPS:C12:1,2008-08-15T19:59:00Z,27.4980,-83.7220,3.0,2.4,343.0,-9999.0,'1111122,1111122,1111122' 
COMPS,ioos:station:USF.COMPS:C12:1,2008-08-15T20:59:00Z,27.4980,-83.7220,3.0,2.1,340.0,-9999.0,'1111122,1111122,1111122' 
COMPS,ioos:station:USF.COMPS:C12:1,2008-08-17T17:59:00Z,27.4980,-83.7220,3.0,2.8,347.0,-9999.0,'1111122,1111122,1111122' 
COMPS,ioos:station:USF.COMPS:C12:1,2008-08-17T18:59:00Z,27.4980,-83.7220,3.0,1.9,123.0,-9999.0,'1111122,1111122,1111122' 
COMPS,ioos:station:USF.COMPS:C12:1,2008-08-17T19:59:00Z,27.4980,-83.7220,3.0,2.1,129.0,-9999.0,'1111122,1111122,1111122' 
COMPS,ioos:station:USF.COMPS:C12:1,2008-08-17T23:59:00Z,27.4980,-83.7220,3.0,1.8,0.0,-9999.0,'1111122,1114422,1111122' 
COMPS,ioos:station:USF.COMPS:C12:1,2008-08-18T00:59:00Z,27.4980,-83.7220,3.0,1.9,31.0,-9999.0,'1111122,1111122,1111122' 
COMPS,ioos:station:USF.COMPS:C12:1,2008-08-18T01:59:00Z,27.4980,-83.7220,3.0,2.5,42.0,-9999.0,'1111122,1111122,1111122' 
COMPS,ioos:station:USF.COMPS:C12:1,2008-08-18T02:59:00Z,27.4980,-83.7220,3.0,2.9,52.0,-9999.0,'1111122,1111122,1111122' 
COMPS,ioos:station:USF.COMPS:C12:1,2008-08-18T03:59:00Z,27.4980,-83.7220,3.0,3.3,30.0,-9999.0,'1111122,1111122,1111122' 
COMPS,ioos:station:USF.COMPS:C12:1,2008-08-18T04:59:00Z,27.4980,-83.7220,3.0,3.4,2.0,-9999.0,'1111122,1111122,1111122' 
COMPS,ioos:station:USF.COMPS:C12:1,2008-08-18T05:59:00Z,27.4980,-83.7220,3.0,4.5,338.0,-9999.0,'1111122,1111122,1111122' 
COMPS,ioos:station:USF.COMPS:C12:1,2008-08-18T06:59:00Z,27.4980,-83.7220,3.0,4.4,342.0,-9999.0,'1111122,1111122,1111122' 
COMPS,ioos:station:USF.COMPS:C12:1,2008-08-18T07:59:00Z,27.4980,-83.7220,3.0,4.0,328.0,-9999.0,'1111122,1111122,1111122' 
COMPS,ioos:station:USF.COMPS:C12:1,2008-08-18T08:59:00Z,27.4980,-83.7220,3.0,1.4,325.0,-9999.0,'1111122,1111122,1111122' 
COMPS,ioos:station:USF.COMPS:C12:1,2008-08-18T09:59:00Z,27.4980,-83.7220,3.0,1.9,138.0,-9999.0,'1111122,1111122,1111122' 
COMPS,ioos:station:USF.COMPS:C12:1,2008-08-18T10:59:00Z,27.4980,-83.7220,3.0,2.9,118.0,-9999.0,'1111122,1111122,1111122' 
COMPS,ioos:station:USF.COMPS:C12:1,2008-08-18T11:59:00Z,27.4980,-83.7220,3.0,3.7,120.0,-9999.0,'1111122,1111122,1111122' 
COMPS,ioos:station:USF.COMPS:C12:1,2008-08-18T12:59:00Z,27.4980,-83.7220,3.0,3.9,111.0,-9999.0,'1111122,1111122,1111122' 
COMPS,ioos:station:USF.COMPS:C12:1,2008-08-18T13:59:00Z,27.4980,-83.7220,3.0,4.0,95.0,-9999.0,'1111122,1111122,1111122' 
COMPS,ioos:station:USF.COMPS:C12:1,2008-08-18T14:59:00Z,27.4980,-83.7220,3.0,4.0,76.0,-9999.0,'1111122,1111122,1111122' 
COMPS,ioos:station:USF.COMPS:C12:1,2008-08-18T15:59:00Z,27.4980,-83.7220,3.0,4.2,85.0,-9999.0,'1111122,1111122,1111122' 
COMPS,ioos:station:USF.COMPS:C12:1,2008-08-18T16:59:00Z,27.4980,-83.7220,3.0,4.5,74.0,-9999.0,'1111122,1111122,1111122' 
COMPS,ioos:station:USF.COMPS:C12:1,2008-08-18T17:59:00Z,27.4980,-83.7220,3.0,5.3,96.0,-9999.0,'1111122,1111122,1111122' 
COMPS,ioos:station:USF.COMPS:C12:1,2008-08-18T18:59:00Z,27.4980,-83.7220,3.0,4.2,67.0,-9999.0,'1111122,1111122,1111122' 
COMPS,ioos:station:USF.COMPS:C12:1,2008-08-18T19:59:00Z,27.4980,-83.7220,3.0,4.3,54.0,-9999.0,'1111122,1111122,1111122' 
COMPS,ioos:station:USF.COMPS:C12:1,2008-08-18T20:59:00Z,27.4980,-83.7220,3.0,4.8,63.0,-9999.0,'1111122,1111122,1111122' 
COMPS,ioos:station:USF.COMPS:C12:1,2008-08-18T21:59:00Z,27.4980,-83.7220,3.0,4.3,53.0,-9999.0,'1111122,1111122,1111122' 
COMPS,ioos:station:USF.COMPS:C12:1,2008-08-18T22:59:00Z,27.4980,-83.7220,3.0,8.4,120.0,-9999.0,'1111122,1111122,1111122' 
COMPS,ioos:station:USF.COMPS:C12:1,2008-08-18T23:59:00Z,27.4980,-83.7220,3.0,5.6,89.0,-9999.0,'1111122,1111122,1111122' 
COMPS,ioos:station:USF.COMPS:C12:1,2008-08-19T00:59:00Z,27.4980,-83.7220,3.0,4.9,41.0,-9999.0,'1111122,1111122,1111122' 
COMPS,ioos:station:USF.COMPS:C12:1,2008-08-19T01:59:00Z,27.4980,-83.7220,3.0,6.2,67.0,-9999.0,'1111122,1111122,1111122' 
COMPS,ioos:station:USF.COMPS:C12:1,2008-08-19T02:59:00Z,27.4980,-83.7220,3.0,5.2,8.0,-9999.0,'1111122,1111122,1111122' 
COMPS,ioos:station:USF.COMPS:C12:1,2008-08-19T03:59:00Z,27.4980,-83.7220,3.0,6.2,11.0,-9999.0,'1111122,1111122,1111122' 
COMPS,ioos:station:USF.COMPS:C12:1,2008-08-19T04:59:00Z,27.4980,-83.7220,3.0,7.0,353.0,-9999.0,'1111122,1111122,1111122' 
COMPS,ioos:station:USF.COMPS:C12:1,2008-08-19T05:59:00Z,27.4980,-83.7220,3.0,4.6,345.0,-9999.0,'1111122,1111122,1111122' 
COMPS,ioos:station:USF.COMPS:C12:1,2008-08-19T06:59:00Z,27.4980,-83.7220,3.0,3.0,352.0,-9999.0,'1111122,1111122,1111122' 
COMPS,ioos:station:USF.COMPS:C12:1,2008-08-19T07:59:00Z,27.4980,-83.7220,3.0,1.2,343.0,-9999.0,'1111122,1111122,1111122' 
COMPS,ioos:station:USF.COMPS:C12:1,2008-08-19T08:59:00Z,27.4980,-83.7220,3.0,1.6,332.0,-9999.0,'1111122,1111122,1111122' 
COMPS,ioos:station:USF.COMPS:C12:1,2008-08-19T09:59:00Z,27.4980,-83.7220,3.0,6.2,144.0,-9999.0,'1111122,1111122,1111122' 
COMPS,ioos:station:USF.COMPS:C12:1,2008-08-19T10:59:00Z,27.4980,-83.7220,3.0,5.0,130.0,-9999.0,'1111122,1111122,1111122' 
COMPS,ioos:station:USF.COMPS:C12:1,2008-08-19T11:59:00Z,27.4980,-83.7220,3.0,5.8,130.0,-9999.0,'1111122,1111122,1111122' 
COMPS,ioos:station:USF.COMPS:C12:1,2008-08-19T12:59:00Z,27.4980,-83.7220,3.0,5.0,130.0,-9999.0,'1111122,1111122,1111122' 
COMPS,ioos:station:USF.COMPS:C12:1,2008-08-19T13:59:00Z,27.4980,-83.7220,3.0,2.5,121.0,-9999.0,'1111122,1111122,1111122' 
COMPS,ioos:station:USF.COMPS:C12:1,2008-08-19T14:59:00Z,27.4980,-83.7220,3.0,3.2,124.0,-9999.0,'1111122,1111122,1111122' 
COMPS,ioos:station:USF.COMPS:C12:1,2008-08-19T15:59:00Z,27.4980,-83.7220,3.0,2.4,102.0,-9999.0,'1111122,1111122,1111122' 
COMPS,ioos:station:USF.COMPS:C12:1,2008-08-19T16:59:00Z,27.4980,-83.7220,3.0,0.9,341.0,-9999.0,'1111122,1111122,1111122' 
COMPS,ioos:station:USF.COMPS:C12:1,2008-08-19T17:59:00Z,27.4980,-83.7220,3.0,1.4,335.0,-9999.0,'1111122,1111122,1111122' 
COMPS,ioos:station:USF.COMPS:C12:1,2008-08-19T18:59:00Z,27.4980,-83.7220,3.0,1.7,311.0,-9999.0,'1111122,1111122,1111122' 
COMPS,ioos:station:USF.COMPS:C12:1,2008-08-19T19:59:00Z,27.4980,-83.7220,3.0,6.1,297.0,-9999.0,'1111122,1111122,1111122' 
COMPS,ioos:station:USF.COMPS:C12:1,2008-08-19T20:59:00Z,27.4980,-83.7220,3.0,6.8,300.0,-9999.0,'1111122,1111122,1111122' 
COMPS,ioos:station:USF.COMPS:C12:1,2008-08-19T21:59:00Z,27.4980,-83.7220,3.0,7.4,310.0,-9999.0,'1111122,1111122,1111122' 
COMPS,ioos:station:USF.COMPS:C12:1,2008-08-19T22:59:00Z,27.4980,-83.7220,3.0,8.9,324.0,-9999.0,'1111122,1111122,1111122' 
COMPS,ioos:station:USF.COMPS:C12:1,2008-08-19T23:59:00Z,27.4980,-83.7220,3.0,8.0,318.0,-9999.0,'1111122,1111122,1111122' 
COMPS,ioos:station:USF.COMPS:C12:1,2008-08-20T00:59:00Z,27.4980,-83.7220,3.0,6.8,314.0,-9999.0,'1111122,1111122,1111122' 
COMPS,ioos:station:USF.COMPS:C12:1,2008-08-20T01:59:00Z,27.4980,-83.7220,3.0,8.3,329.0,-9999.0,'1111122,1111122,1111122' 
COMPS,ioos:station:USF.COMPS:C12:1,2008-08-20T02:59:00Z,27.4980,-83.7220,3.0,8.4,334.0,-9999.0,'1111122,1111122,1111122' 
COMPS,ioos:station:USF.COMPS:C12:1,2008-08-20T03:59:00Z,27.4980,-83.7220,3.0,6.3,342.0,-9999.0,'1111122,1111122,1111122' 
COMPS,ioos:station:USF.COMPS:C12:1,2008-08-20T04:59:00Z,27.4980,-83.7220,3.0,8.4,333.0,-9999.0,'1111122,1111122,1111122' 
COMPS,ioos:station:USF.COMPS:C12:1,2008-08-20T05:59:00Z,27.4980,-83.7220,3.0,8.4,336.0,-9999.0,'1111122,1111122,1111122' 
COMPS,ioos:station:USF.COMPS:C12:1,2008-08-20T06:59:00Z,27.4980,-83.7220,3.0,8.6,333.0,-9999.0,'1111122,1111122,1111122' 
COMPS,ioos:station:USF.COMPS:C12:1,2008-08-20T07:59:00Z,27.4980,-83.7220,3.0,7.9,323.0,-9999.0,'1111122,1111122,1111122' 
COMPS,ioos:station:USF.COMPS:C12:1,2008-08-20T08:59:00Z,27.4980,-83.7220,3.0,7.4,309.0,-9999.0,'1111122,1111122,1111122' 
COMPS,ioos:station:USF.COMPS:C12:1,2008-08-20T09:59:00Z,27.4980,-83.7220,3.0,7.7,299.0,-9999.0,'1111122,1111122,1111122' 
COMPS,ioos:station:USF.COMPS:C12:1,2008-08-20T10:59:00Z,27.4980,-83.7220,3.0,8.0,299.0,-9999.0,'1111122,1111122,1111122' 
COMPS,ioos:station:USF.COMPS:C12:1,2008-08-20T11:59:00Z,27.4980,-83.7220,3.0,7.9,303.0,-9999.0,'1111122,1111122,1111122' 
COMPS,ioos:station:USF.COMPS:C12:1,2008-08-20T12:59:00Z,27.4980,-83.7220,3.0,7.4,317.0,-9999.0,'1111122,1111122,1111122' 
COMPS,ioos:station:USF.COMPS:C12:1,2008-08-20T13:59:00Z,27.4980,-83.7220,3.0,7.6,308.0,-9999.0,'1111122,1111122,1111122' 
COMPS,ioos:station:USF.COMPS:C12:1,2008-08-20T14:59:00Z,27.4980,-83.7220,3.0,7.2,323.0,-9999.0,'1111122,1111122,1111122' 
COMPS,ioos:station:USF.COMPS:C12:1,2008-08-20T15:59:00Z,27.4980,-83.7220,3.0,6.7,323.0,-9999.0,'1111122,1111122,1111122' 
COMPS,ioos:station:USF.COMPS:C12:1,2008-08-20T16:59:00Z,27.4980,-83.7220,3.0,6.5,325.0,-9999.0,'1111122,1111122,1111122' 
COMPS,ioos:station:USF.COMPS:C12:1,2008-08-20T17:59:00Z,27.4980,-83.7220,3.0,6.9,318.0,-9999.0,'1111122,1111122,1111122' 
COMPS,ioos:station:USF.COMPS:C12:1,2008-08-20T18:59:00Z,27.4980,-83.7220,3.0,6.7,315.0,-9999.0,'1111122,1111122,1111122' 
COMPS,ioos:station:USF.COMPS:C12:1,2008-08-20T19:59:00Z,27.4980,-83.7220,3.0,7.5,326.0,-9999.0,'1111122,1111122,1111122' 
COMPS,ioos:station:USF.COMPS:C12:1,2008-08-20T20:59:00Z,27.4980,-83.7220,3.0,7.8,314.0,-9999.0,'1111122,1111122,1111122' 
COMPS,ioos:station:USF.COMPS:C12:1,2008-08-20T21:59:00Z,27.4980,-83.7220,3.0,7.9,320.0,-9999.0,'1111122,1111122,1111122' 
COMPS,ioos:station:USF.COMPS:C12:1,2008-08-20T22:59:00Z,27.4980,-83.7220,3.0,8.2,319.0,-9999.0,'1111122,1111122,1111122' 
COMPS,ioos:station:USF.COMPS:C12:1,2008-08-20T23:59:00Z,27.4980,-83.7220,3.0,8.1,316.0,-9999.0,'1111122,1111122,1111122' 
COMPS,ioos:station:USF.COMPS:C12:1,2008-08-21T00:59:00Z,27.4980,-83.7220,3.0,8.0,323.0,-9999.0,'1111122,1111122,1111122' 
COMPS,ioos:station:USF.COMPS:C12:1,2008-08-21T01:59:00Z,27.4980,-83.7220,3.0,7.7,339.0,-9999.0,'1111122,1111122,1111122' 
COMPS,ioos:station:USF.COMPS:C12:1,2008-08-21T02:59:00Z,27.4980,-83.7220,3.0,6.3,344.0,-9999.0,'1111122,1111122,1111122' 